Jordan Valley, OR

6:43 AM MST on January 18, 2017 (GMT -0700)
Rome State

Weather History for KREO - March, 2014

Change the Weather History Date:

Tuesday, March 25, 2014

  Actual Average Record
Temperature  
Mean Temperature 49 °F 41 °F  
Max Temperature 65 °F 56 °F 74 °F (1960)
Min Temperature 33 °F 27 °F 20 °F (1965)
Degree Days  
Heating Degree Days 16 24  
Month to date heating degree days 544 644  
Since 1 July heating degree days 4966 5378  
Cooling Degree Days 0 0  
Month to date cooling degree days 0 0  
Year to date cooling degree days 0 0  
Growing Degree Days 2 (Base 50)    
Moisture  
Dew Point 14 °F    
Average Humidity 34    
Maximum Humidity 57    
Minimum Humidity 10    
Precipitation  
Precipitation 0.00 in 0.03 in 0.53 in (2003)
Month to date precipitation 0.17 0.76  
Year to date precipitation 0.92 2.17  
Sea Level Pressure  
Sea Level Pressure 29.75 in    
Wind  
Wind Speed 16 mph (South)    
Max Wind Speed 36 mph    
Max Gust Speed 44 mph    
T = Trace of Precipitation, MM = Missing Value Source: NWS Daily Summary

Daily Weather History Graph

Daily Weather History Graph

Search for Another Location

Airport or City:

Trip Planner

Search our weather history database for the weather conditions in past years. The results will help you decide how hot, cold, wet, or windy it might be!

Date:

Astronomy

Mar. 25, 2014 Rise Set
Actual Time 6:45 AM PDT 7:09 PM PDT
Civil Twilight 6:17 AM PDT 7:37 PM PDT
Nautical Twilight 5:44 AM PDT 8:11 PM PDT
Astronomical Twilight 5:10 AM PDT 8:45 PM PDT
Moon 3:17 AM PDT (3/25) 1:39 PM PDT (3/25)
Length of Visible Light 13h 20m
Length of Day
12h 23m
Waning Crescent, 31% of the Moon is Illuminated
Mar 25
Waning Crescent
Mar 30
New
Apr 7
First Quarter
Apr 15
Full
Apr 22
Last Quarter

Hourly Weather History & Observations

Time (PDT) Temp. Windchill Dew Point Humidity Pressure Visibility Wind Dir Wind Speed Gust Speed Precip Events Conditions
12:52 AM 46.0 °F 40.2 °F 10.0 °F 23% 29.94 in - SE 12.7 mph - N/A   Unknown
1:52 AM 45.0 °F 38.9 °F 10.0 °F 24% 29.92 in - SE 12.7 mph - N/A   Unknown
2:52 AM 44.1 °F 38.6 °F 8.1 °F 23% 29.90 in - SSE 10.4 mph - N/A   Unknown
3:52 AM 46.0 °F 43.1 °F 9.0 °F 22% 29.87 in - Variable 5.8 mph - N/A   Unknown
4:52 AM 41.0 °F 39.0 °F 7.0 °F 25% 29.88 in - West 3.5 mph - N/A   Unknown
5:52 AM 39.9 °F 35.1 °F 9.0 °F 28% 29.86 in - SSE 6.9 mph - N/A   Unknown
6:52 AM 42.1 °F 37.7 °F 10.0 °F 27% 29.84 in - SSE 6.9 mph - N/A   Unknown
7:52 AM 48.0 °F - 10.0 °F 22% 29.83 in - SE 19.6 mph - N/A   Unknown
8:52 AM 57.0 °F - 9.0 °F 15% 29.80 in - SSE 19.6 mph - N/A   Unknown
9:52 AM 59.0 °F - 9.0 °F 14% 29.76 in - SE 21.9 mph 26.5 mph N/A   Unknown
10:52 AM 64.9 °F - 9.0 °F 11% 29.73 in - South 25.3 mph 33.4 mph N/A   Unknown
11:52 AM 63.0 °F - 8.1 °F 11% 29.73 in - SSW 26.5 mph 34.5 mph N/A   Unknown
12:52 PM 62.1 °F - 10.0 °F 13% 29.72 in - South 20.7 mph 32.2 mph N/A   Unknown
1:52 PM 64.9 °F - 10.9 °F 12% 29.68 in - South 25.3 mph 33.4 mph N/A   Unknown
2:52 PM 62.1 °F - 8.1 °F 12% 29.68 in - SW 26.5 mph 35.7 mph N/A   Unknown
3:52 PM 57.9 °F - 1.9 °F 10% 29.68 in - SW 24.2 mph 41.4 mph N/A   Unknown
4:52 PM 54.0 °F - 15.1 °F 22% 29.69 in - WSW 24.2 mph 41.4 mph N/A   Unknown
5:52 PM 53.1 °F - 19.9 °F 27% 29.68 in - WSW 19.6 mph 24.2 mph N/A   Unknown
6:52 PM 50.0 °F - 28.0 °F 43% 29.68 in - SW 18.4 mph 26.5 mph N/A   Unknown
7:52 PM 48.0 °F - 30.0 °F 50% 29.67 in - WSW 11.5 mph - N/A   Unknown
8:52 PM 44.1 °F 38.1 °F 28.9 °F 55% 29.65 in - WSW 11.5 mph - N/A   Unknown
9:52 PM 42.1 °F 36.1 °F 28.0 °F 58% 29.64 in - SSW 10.4 mph - N/A   Unknown
10:52 PM 41.0 °F 37.1 °F 26.1 °F 55% 29.62 in - SW 5.8 mph - N/A   Unknown
11:52 PM 39.0 °F 32.8 °F 25.0 °F 57% 29.63 in - SSE 9.2 mph - N/A   Unknown